Airport Information

KBFI - Boeing Fld King Co Intl Airport

KBFI 240753Z VRB03KT 10SM OVC024 17/13 A3000 RMK AO2 SLP157 T01720128 402330156


  • General Information

  • Coordinates: N 47°31'48"/ W 122°18'7"
  • Location: N/A
  • Surveyed Elevation: 21 MSL

Operations

Flow Name Active Runways Conditions
South Flow Landing: 13R/13L
Departing: 13R/13L
Wind Direction: 040-220°
Wind Speed: <5 or CALM
North Flow Landing: 31L/31R
Departing: 31L/31R
Wind Direction: 221-039°
Wind Speed: ≥6

Green background denotes normal operations.


Common Frequencies

Callsign Frequency Position Name
BFI_DEL 132.400 Boeing Delivery
BFI_GND 121.900 Boeing Ground
BFR_TWR 118.300 Boeing Tower

More at the Document Center


Charts

Under Construction
Name Description Cycle
KENT SEVEN Page 1 | Page 2 1707
NEEDLE NINE Page 1 | Page 2 1707
Name Description Cycle
CHINS TWO Page 1 | Page 2 1707
EPHRATA EIGHT Page 1 1707
GLASR ONE Page 1 | Page 2 1707
JAWBN FIVE Page 1 1707
OLYMPIA TWO Page 1 | Page 2 1707